Wind_Speed
26 28 22 20 17 16 11 7 9 11 10 15 17 14 16 17 16 15 17 20 19 15 13 8 8 10 12 12 12 14 16 20 17 13 13 10 5 5 8 7 6 5 7 8
31 24 21 16 14 14 11 10 9 8 10 12 13 13 15 14 13 13 13 14 15 17 14 13 11 9 14 16 16 17 17 23 21 17 19 16 10 8 9 8 7 10 11 10
26 28 23 18 13 14 12 6 5 8 14 18 15 11 15 15 7 11 10 10 10 11 14 14 12 12 6 9 14 18 17 17 15 23 12 12 11 8 8 11 10 10 10 10
23 26 23 17 14 11 6 3 8 12 12 11 11 8 14 12 5 6 6 5 8 8 8 10 12 13 11 12 8 16 11 10 10 13 11 12 13 7 11 13 10 11 11 10
24 20 17 16 13 14 2 4 3 5 9 10 9 13 14 16 13 7 1 3 3 3 5 8 9 10 10 11 13 15 16 16 16 14 10 9 10 11 11 11 9 9 10 11
11 3 11 20 17 13 9 6 11 9 11 12 13 12 13 14 9 10 7 5 6 7 3 5 7 8 8 9 10 9 10 11 10 10 10 10 9 7 6 7 8 9 7 9
10 6 1 12 12 11 12 7 2 5 8 12 12 20 17 12 6 9 9 4 3 10 15 11 8 6 2 4 6 8 7 8 9 8 8 8 7 6 6 6 7 7 8 7
12 12 10 9 10 5 12 8 1 7 3 10 10 6 12 14 5 2 3 11 12 12 14 9 15 11 9 9 7 8 8 7 7 7 8 8 7 6 6 9 8 7 7 8
14 11 11 11 5 2 11 4 14 10 5 9 9 9 9 8 8 9 6 10 22 18 16 11 11 9 8 9 10 10 8 7 6 5 5 7 11 10 9 9 11 10 7 8
7 11 11 6 6 6 3 9 9 7 8 11 15 8 10 16 19 18 7 11 23 23 19 12 9 8 6 6 6 7 7 7 7 8 7 8 10 9 15 13 7 8 8 10
10 7 6 7 9 6 10 11 12 17 14 11 15 12 13 13 21 27 13 12 25 24 19 15 11 8 7 4 4 7 9 9 8 8 8 8 9 10 9 7 5 3 9 14
10 8 9 8 13 15 13 18 17 11 16 17 12 14 14 13 23 28 14 8 19 21 29 14 9 12 11 7 2 7 7 6 7 8 8 8 11 9 11 10 9 8 8 12
11 9 8 14 18 18 12 16 23 19 16 14 15 15 17 22 20 19 17 16 13 35 27 19 11 9 8 8 4 8 9 9 10 9 10 9 10 10 10 9 9 9 9 7
17 19 24 21 21 20 17 18 16 14 13 15 19 22 24 27 22 15 6 5 22 24 23 17 13 11 12 12 8 10 10 9 9 10 10 9 10 12 11 10 10 10 9 9
22 25 32 30 21 20 17 16 23 20 16 18 18 18 18 16 14 5 8 8 10 15 16 16 15 15 13 11 9 10 9 7 8 9 10 12 13 12 9 10 12 13 12 11
25 35 35 27 24 22 21 21 27 24 22 20 13 11 9 10 9 6 10 6 8 9 11 16 15 13 10 11 8 9 10 11 10 10 10 10 10 11 11 14 15 14 13 13
24 33 34 23 18 21 21 20 24 25 22 17 14 11 12 9 10 5 7 9 16 10 10 12 9 9 14 10 10 13 12 7 8 9 11 12 12 11 12 14 15 16 15 14
31 31 27 23 22 24 24 21 18 20 19 16 20 19 17 18 18 7 3 5 9 15 11 11 9 8 11 11 11 12 7 7 8 11 13 12 10 9 9 8 9 11 15 16
28 25 26 24 23 23 28 25 19 21 24 22 24 21 20 12 13 11 3 3 13 13 13 10 7 9 14 12 11 11 9 11 10 12 13 10 9 9 10 12 13 13 13 15
38 33 33 31 31 31 24 27 25 27 28 27 25 24 15 9 11 12 9 8 11 12 13 11 11 14 15 15 11 12 13 12 12 14 13 12 11 12 14 15 17 17 17 18
50 49 43 41 40 38 31 33 30 30 27 30 29 25 20 19 18 12 9 11 11 9 9 14 19 18 17 16 12 14 13 14 15 15 15 15 14 14 15 16 16 16 17 17
53 50 48 50 48 50 45 44 40 35 31 31 32 33 29 25 21 10 10 15 13 10 9 16 18 18 15 12 12 13 15 16 17 17 16 16 16 17 18 18 18 18 17 16
52 54 58 59 56 52 48 44 45 41 39 41 35 34 35 31 23 16 11 10 9 12 15 18 16 15 11 11 12 15 15 16 18 18 19 19 18 18 19 20 20 20 20 19
53 52 53 55 61 63 58 55 54 54 54 51 41 38 34 29 23 17 16 15 14 14 19 20 18 16 14 14 15 16 18 17 17 18 19 20 20 21 22 22 22 22 21 21
57 56 55 56 57 56 55 55 51 52 54 50 45 39 34 30 29 23 21 17 15 16 20 19 16 15 14 15 16 18 18 17 16 16 18 20 21 22 23 23 23 23 24 24
57 59 58 59 58 58 55 51 52 51 54 52 48 44 39 32 29 29 25 16 17 16 14 14 15 14 16 18 18 18 18 18 18 18 18 19 21 22 23 22 23 23 23 24
Wind_Direction
145 137 127 100 79 68 64 58 101 74 65 49 48 29 33 28 32 44 49 46 44 46 58 91 179 177 206 196 209 194 193 187 187 194 188 185 195 228 252 246 256 280 292 300
144 134 121 105 103 80 76 80 59 39 34 22 25 40 11 13 26 37 48 54 47 47 59 67 88 163 197 203 197 195 196 212 201 191 213 196 194 228 238 243 267 299 304 308
150 148 142 131 119 86 90 66 35 4 352 346 350 14 1 9 37 51 49 61 65 61 65 69 80 86 122 198 212 202 205 224 218 207 214 187 186 217 272 287 293 302 311 309
163 168 158 145 151 136 108 41 355 341 340 341 359 17 360 3 29 57 40 35 33 62 73 83 78 80 89 99 162 189 203 206 191 167 193 206 193 224 267 271 293 306 310 316
162 181 203 176 189 167 186 237 253 337 340 19 354 330 337 334 308 275 348 290 317 337 100 94 95 89 84 96 110 133 146 143 143 168 186 214 231 251 256 270 292 298 306 320
190 243 216 219 206 185 171 240 263 287 310 315 306 311 346 331 303 247 269 227 284 321 250 176 132 100 98 108 116 125 134 145 159 180 203 225 230 230 250 272 288 303 317 331
156 138 184 140 125 115 159 177 3 293 304 307 332 317 331 301 272 233 288 255 271 301 300 272 234 192 168 113 124 135 150 161 168 186 204 215 234 233 254 279 297 317 327 334
153 134 133 135 118 143 164 168 339 299 241 320 312 337 54 64 48 275 148 227 225 272 254 263 267 253 227 189 160 152 159 184 204 219 230 241 243 269 285 298 302 308 310 313
144 155 149 141 161 157 187 251 251 275 310 313 338 5 45 87 340 358 210 252 231 248 241 222 201 190 192 209 198 185 185 185 199 226 285 289 285 294 295 298 302 292 288 289
169 179 157 189 246 256 250 251 266 269 288 316 313 340 358 352 358 356 304 230 229 230 211 200 161 164 179 217 228 243 217 217 230 222 233 245 267 277 292 297 286 269 266 275
200 190 179 176 268 265 251 254 260 258 273 293 306 317 337 13 355 353 311 241 239 245 237 180 173 175 196 211 251 246 244 228 230 253 238 252 273 294 284 297 313 291 265 268
207 269 217 240 260 267 238 243 251 270 265 276 290 302 305 333 354 11 326 286 221 237 163 164 174 186 196 209 217 254 242 233 232 231 234 260 269 276 281 290 293 302 302 282
235 237 252 246 249 270 283 251 238 251 246 266 287 299 304 305 319 348 356 30 171 161 176 167 173 161 183 180 208 252 238 207 221 219 240 261 268 277 281 289 302 300 303 332
229 242 250 247 257 263 256 223 249 247 250 267 279 287 294 303 312 329 335 59 126 142 159 169 169 180 196 174 204 225 228 226 236 241 252 252 257 267 279 290 294 292 299 304
232 243 258 268 268 250 255 255 246 239 253 267 270 275 287 304 322 19 158 133 147 165 168 169 181 191 198 184 219 245 236 244 246 251 253 253 253 269 279 283 288 290 295 303
240 253 257 267 254 243 229 232 237 240 253 267 269 275 282 294 315 21 190 238 169 182 182 191 194 195 204 201 234 247 237 240 241 247 255 257 265 265 270 284 285 278 275 287
247 250 257 273 253 225 227 233 244 248 261 274 280 297 310 311 304 346 145 167 180 193 203 206 199 212 225 224 234 238 240 258 275 269 263 259 253 259 268 274 276 274 268 275
246 252 269 267 269 224 222 232 236 250 254 257 274 283 286 287 295 308 177 183 206 210 230 218 222 230 232 227 234 243 253 262 267 269 266 261 256 255 261 276 280 271 259 259
246 243 253 257 254 240 226 220 230 245 256 264 273 287 294 282 274 282 199 214 199 223 231 246 250 240 238 237 251 269 278 277 280 267 266 265 280 297 311 314 305 287 276 269
241 240 245 246 250 241 237 227 226 239 251 257 269 279 286 297 316 278 266 239 228 231 240 255 249 245 260 262 262 270 274 285 288 283 284 286 290 305 310 307 311 313 301 292
236 237 234 241 240 239 241 237 230 235 250 255 264 265 263 279 290 278 253 232 233 227 246 246 233 238 248 260 267 276 284 284 281 281 277 278 289 297 298 300 300 299 302 303
235 234 240 241 241 244 250 243 232 236 240 253 269 269 268 270 276 276 228 235 251 261 268 245 259 213 259 270 283 289 285 283 280 277 273 272 279 285 290 294 299 304 306 304
244 242 241 238 244 246 246 239 238 237 243 259 259 264 270 270 260 255 240 225 239 246 246 250 242 251 276 295 297 292 288 284 281 278 276 272 275 281 287 294 299 304 303 303
247 244 241 242 241 243 244 245 244 245 249 259 260 257 262 266 267 257 246 259 285 248 240 241 251 265 273 285 293 298 295 289 279 277 276 276 279 283 287 291 296 297 294 295
251 248 243 241 241 241 239 239 242 245 248 251 254 254 262 256 269 264 268 267 267 264 246 249 250 259 273 283 290 291 291 292 290 287 287 287 286 285 289 292 295 294 295 294
248 248 244 240 240 238 237 234 233 236 241 245 249 248 248 244 257 260 262 261 259 252 256 267 257 262 272 278 285 293 297 300 297 292 290 287 286 287 288 291 295 297 298 298
Height
5899 5901 5901 5900 5900 5899 5899 5902 5904 5902 5905 5906 5908 5910 5909 5906 5904 5900 5897 5895 5894 5892 5890 5888 5889 5890 5893 5894 5895 5897 5900 5905 5908 5911 5914 5917 5917 5918 5918 5918 5919 5918 5918 5919
5902 5902 5901 5900 5900 5900 5901 5903 5904 5904 5904 5908 5908 5910 5910 5907 5904 5903 5901 5899 5899 5898 5895 5894 5892 5892 5893 5893 5894 5897 5899 5901 5903 5908 5910 5913 5915 5917 5918 5919 5918 5918 5919 5919
5902 5903 5901 5901 5902 5901 5903 5903 5905 5905 5904 5906 5907 5908 5909 5907 5906 5904 5902 5901 5901 5899 5897 5895 5895 5894 5893 5892 5893 5895 5897 5898 5900 5904 5908 5911 5913 5916 5917 5917 5917 5918 5918 5917
5902 5904 5903 5902 5904 5904 5903 5905 5905 5905 5905 5905 5906 5908 5908 5907 5907 5904 5903 5903 5903 5901 5901 5899 5898 5896 5895 5894 5894 5895 5898 5899 5901 5905 5908 5909 5912 5915 5917 5915 5915 5915 5915 5915
5903 5906 5906 5904 5904 5904 5904 5905 5906 5907 5907 5906 5906 5907 5909 5909 5907 5906 5903 5903 5903 5904 5903 5904 5902 5901 5900 5899 5898 5899 5899 5901 5903 5906 5908 5910 5911 5913 5914 5914 5914 5913 5913 5911
5900 5903 5903 5903 5903 5905 5905 5906 5907 5907 5906 5906 5906 5905 5906 5906 5905 5905 5903 5902 5905 5905 5904 5904 5903 5903 5903 5903 5901 5902 5903 5903 5904 5906 5907 5909 5911 5912 5913 5914 5913 5912 5911 5910
5900 5901 5903 5903 5904 5905 5905 5907 5907 5907 5905 5905 5904 5902 5903 5902 5901 5901 5902 5904 5905 5905 5905 5904 5903 5902 5903 5905 5903 5903 5904 5904 5905 5906 5907 5908 5910 5910 5912 5913 5913 5912 5910 5909
5899 5903 5904 5905 5905 5905 5905 5907 5906 5904 5904 5905 5903 5902 5902 5900 5900 5902 5899 5901 5901 5902 5902 5903 5903 5902 5900 5902 5904 5904 5903 5905 5905 5906 5907 5908 5908 5909 5909 5911 5910 5910 5909 5908
5900 5902 5903 5903 5904 5905 5905 5905 5903 5902 5904 5903 5903 5902 5900 5899 5900 5899 5897 5899 5899 5900 5901 5902 5902 5902 5902 5904 5903 5903 5904 5905 5905 5906 5907 5907 5908 5908 5907 5907 5907 5906 5906 5905
5900 5902 5902 5903 5903 5903 5903 5904 5904 5902 5902 5901 5900 5900 5898 5898 5895 5892 5891 5893 5894 5895 5898 5901 5901 5902 5903 5904 5906 5907 5904 5903 5903 5901 5903 5904 5905 5906 5906 5904 5903 5903 5902 5901
5897 5899 5901 5899 5901 5901 5902 5901 5900 5900 5900 5899 5898 5898 5897 5896 5891 5889 5886 5888 5889 5890 5890 5898 5900 5901 5902 5903 5904 5905 5906 5902 5903 5902 5901 5902 5903 5902 5904 5902 5900 5900 5900 5899
5894 5895 5895 5897 5898 5898 5900 5898 5897 5898 5899 5897 5896 5897 5894 5893 5890 5886 5884 5882 5883 5886 5890 5895 5899 5901 5902 5902 5903 5905 5904 5902 5901 5900 5899 5899 5900 5901 5901 5899 5897 5896 5897 5895
5892 5892 5892 5894 5896 5896 5896 5893 5895 5896 5895 5894 5894 5894 5892 5892 5892 5889 5886 5876 5872 5884 5890 5893 5898 5900 5901 5901 5902 5903 5902 5899 5898 5897 5898 5897 5898 5898 5898 5895 5894 5894 5893 5893
5887 5889 5889 5890 5892 5892 5894 5892 5894 5893 5893 5892 5892 5892 5891 5890 5889 5888 5887 5886 5884 5888 5894 5896 5897 5899 5899 5898 5900 5900 5899 5897 5896 5895 5893 5894 5895 5895 5894 5891 5891 5891 5891 5890
5885 5884 5883 5885 5887 5887 5888 5890 5889 5889 5890 5890 5889 5889 5890 5888 5888 5886 5886 5888 5889 5892 5894 5894 5896 5897 5897 5896 5897 5896 5895 5894 5893 5892 5892 5893 5893 5892 5890 5889 5889 5888 5887 5887
5880 5878 5877 5880 5881 5882 5883 5885 5886 5886 5887 5886 5886 5886 5887 5886 5887 5889 5888 5886 5886 5888 5891 5894 5894 5893 5893 5892 5891 5891 5892 5893 5892 5891 5891 5889 5888 5888 5886 5886 5885 5885 5885 5883
5873 5872 5874 5877 5875 5876 5879 5880 5882 5882 5882 5883 5884 5885 5884 5885 5884 5885 5887 5887 5888 5889 5889 5889 5888 5888 5891 5888 5887 5889 5889 5887 5887 5886 5887 5887 5887 5886 5885 5884 5882 5881 5881 5881
5867 5868 5869 5872 5872 5872 5874 5876 5877 5876 5878 5879 5880 5881 5882 5882 5882 5883 5885 5886 5886 5886 5885 5885 5884 5884 5884 5884 5885 5887 5884 5883 5883 5884 5885 5885 5884 5883 5882 5881 5880 5878 5878 5878
5859 5861 5862 5864 5866 5869 5869 5871 5872 5873 5873 5874 5875 5877 5876 5879 5879 5880 5881 5882 5882 5882 5880 5878 5877 5878 5880 5880 5880 5880 5880 5881 5880 5881 5882 5880 5878 5877 5875 5875 5874 5873 5873 5872
5850 5853 5855 5857 5859 5861 5867 5865 5866 5867 5867 5869 5871 5873 5873 5875 5875 5875 5875 5876 5877 5876 5875 5874 5874 5876 5876 5877 5876 5877 5878 5876 5875 5876 5876 5874 5873 5871 5870 5869 5868 5867 5866 5866
5838 5840 5842 5844 5847 5851 5855 5859 5858 5858 5866 5865 5867 5869 5871 5872 5873 5870 5871 5870 5872 5873 5872 5870 5871 5872 5874 5876 5875 5874 5873 5872 5872 5872 5871 5870 5869 5867 5866 5865 5864 5863 5862 5861
5827 5829 5832 5834 5835 5838 5845 5850 5849 5852 5854 5856 5859 5861 5864 5868 5868 5868 5867 5866 5866 5868 5869 5867 5867 5861 5871 5871 5870 5869 5869 5868 5869 5868 5867 5867 5865 5864 5863 5862 5860 5858 5858 5856
5810 5813 5819 5821 5822 5826 5833 5836 5839 5842 5845 5847 5851 5854 5857 5860 5863 5864 5864 5865 5866 5867 5867 5864 5869 5867 5866 5865 5864 5865 5865 5865 5865 5863 5863 5862 5861 5860 5859 5857 5855 5855 5852 5850
5791 5796 5800 5804 5807 5811 5819 5823 5828 5831 5835 5839 5843 5847 5851 5853 5856 5858 5859 5859 5861 5862 5864 5866 5864 5861 5861 5861 5861 5860 5860 5859 5859 5858 5857 5856 5855 5854 5853 5851 5850 5849 5847 5845
5773 5778 5782 5786 5790 5795 5803 5810 5813 5815 5821 5828 5833 5838 5843 5847 5849 5851 5854 5855 5855 5858 5858 5858 5858 5857 5857 5857 5857 5857 5855 5854 5853 5852 5851 5850 5849 5848 5846 5845 5843 5841 5839 5838
5755 5758 5762 5767 5773 5777 5786 5794 5798 5802 5805 5814 5821 5828 5834 5838 5842 5843 5845 5849 5851 5851 5851 5851 5851 5852 5852 5853 5852 5850 5849 5847 5847 5846 5846 5845 5844 5842 5840 5839 5837 5835 5833 5831